Location: ??
(35.5052°N, 139.7262°E)
Time: 15:14:45
(UTC+00:00)

FENGYUN 1C DEB - Pass Details

Date: 05 February 2022
Orbit: 690 x 958 km, 98.4° (Epoch: 23 May)

Event Time Altitude Azimuth Distance (km) Brightness Sun altitude
Rises 09:02:42 0° 169° (SSE) 3,314 ? -10.7°
Reaches altitude 10° 09:04:58 10° 170° (S) 2,425 ? -11.1°
Maximum altitude 09:10:23 80° 257° (WSW) 889 ? -12.2°
Drops below altitude 10° 09:16:14 10° 345° (NNW) 2,610 ? -13.4°
Sets 09:18:44 0° 347° (NNW) 3,584 ? -13.9°
